TimeCDT,TemperatureF,Dew PointF,Humidity,Sea Level PressureIn,VisibilityMPH,Wind Direction,Wind SpeedMPH,Gust SpeedMPH,PrecipitationIn,Events,Conditions,WindDirDegrees,DateUTC
12:15 AM,62.6,59.0,88,30.13,10.0,SSW,4.6,-,N/A,,Clear,200,2012-10-12 05:15:00
12:35 AM,62.6,59.0,88,30.13,10.0,SSW,5.8,-,N/A,,Clear,200,2012-10-12 05:35:00
12:55 AM,62.6,59.0,88,30.13,10.0,South,8.1,-,N/A,,Clear,190,2012-10-12 05:55:00
1:15 AM,62.6,59.0,88,30.13,10.0,South,8.1,-,N/A,,Clear,190,2012-10-12 06:15:00
1:35 AM,62.6,59.0,88,30.12,10.0,South,8.1,-,N/A,,Clear,190,2012-10-12 06:35:00
1:55 AM,62.6,59.0,88,30.12,10.0,South,5.8,-,N/A,,Clear,190,2012-10-12 06:55:00
2:15 AM,62.6,59.0,88,30.12,10.0,South,5.8,-,N/A,,Clear,190,2012-10-12 07:15:00
2:35 AM,62.6,60.8,94,30.12,10.0,South,5.8,-,N/A,,Clear,190,2012-10-12 07:35:00
2:55 AM,60.8,59.0,94,30.12,10.0,SSW,4.6,-,N/A,,Clear,200,2012-10-12 07:55:00
3:15 AM,60.8,59.0,94,30.12,7.0,Calm,Calm,-,N/A,,Clear,0,2012-10-12 08:15:00
3:35 AM,59.0,57.2,94,30.12,7.0,SSW,5.8,-,N/A,,Clear,200,2012-10-12 08:35:00
3:55 AM,59.0,59.0,100,30.11,5.0,SSW,4.6,-,N/A,,Clear,200,2012-10-12 08:55:00
4:15 AM,60.8,59.0,94,30.10,7.0,South,6.9,-,N/A,,Clear,190,2012-10-12 09:15:00
4:35 AM,60.8,60.8,100,30.10,7.0,SSW,8.1,-,N/A,,Clear,200,2012-10-12 09:35:00
4:55 AM,62.6,60.8,94,30.11,7.0,SSW,8.1,-,N/A,,Clear,200,2012-10-12 09:55:00
5:15 AM,62.6,60.8,94,30.11,10.0,SSW,9.2,-,N/A,,Clear,200,2012-10-12 10:15:00
5:35 AM,62.6,60.8,94,30.11,10.0,South,10.4,-,N/A,,Clear,190,2012-10-12 10:35:00
5:55 AM,62.6,60.8,94,30.10,10.0,South,10.4,-,N/A,,Clear,190,2012-10-12 10:55:00
6:15 AM,62.6,60.8,94,30.11,10.0,South,10.4,-,N/A,,Clear,190,2012-10-12 11:15:00
6:35 AM,62.6,60.8,94,30.11,10.0,South,10.4,-,N/A,,Mostly Cloudy,180,2012-10-12 11:35:00
6:55 AM,64.4,62.6,94,30.10,10.0,South,12.7,-,N/A,,Overcast,190,2012-10-12 11:55:00
7:15 AM,64.4,62.6,94,30.11,10.0,SSW,12.7,18.4,N/A,,Overcast,200,2012-10-12 12:15:00
7:35 AM,68.0,64.4,88,30.13,10.0,SSW,11.5,-,N/A,,Overcast,210,2012-10-12 12:35:00
7:55 AM,68.0,64.4,88,30.15,10.0,SW,8.1,-,N/A,,Unknown,220,2012-10-12 12:55:00
8:15 AM,68.0,64.4,88,30.18,10.0,NW,8.1,-,N/A,,Overcast,310,2012-10-12 13:15:00
8:35 AM,68.0,64.4,88,30.18,7.0,NW,8.1,-,N/A,Rain-Thunderstorm,Light Thunderstorms and Rain,310,2012-10-12 13:35:00
8:55 AM,64.4,64.4,100,30.20,5.0,NW,9.2,-,N/A,Rain-Thunderstorm,Light Thunderstorms and Rain,310,2012-10-12 13:55:00
9:15 AM,64.4,62.6,94,30.20,4.0,NW,13.8,-,N/A,Rain,Light Rain,310,2012-10-12 14:15:00
9:55 AM,62.6,59.0,88,30.17,10.0,NNE,16.1,-,N/A,,Clear,20,2012-10-12 14:55:00
10:15 AM,60.8,55.4,82,30.17,10.0,NE,15.0,-,N/A,,Clear,50,2012-10-12 15:15:00
10:35 AM,60.8,55.4,82,30.15,10.0,NE,13.8,18.4,N/A,,Clear,50,2012-10-12 15:35:00
11:15 AM,62.6,53.6,72,30.19,10.0,North,8.1,-,N/A,,Mostly Cloudy,10,2012-10-12 16:15:00
11:35 AM,62.6,53.6,72,30.19,10.0,NNE,8.1,-,N/A,,Mostly Cloudy,20,2012-10-12 16:35:00
11:55 AM,60.8,51.8,72,30.20,10.0,ENE,9.2,-,N/A,,Mostly Cloudy,60,2012-10-12 16:55:00
12:15 PM,60.8,53.6,77,30.19,10.0,ENE,8.1,-,N/A,,Light Drizzle,60,2012-10-12 17:15:00
12:55 PM,64.4,55.4,73,30.15,10.0,ENE,12.7,-,N/A,,Overcast,70,2012-10-12 17:55:00
1:35 PM,69.8,62.6,78,30.12,10.0,East,13.8,-,N/A,,Mostly Cloudy,100,2012-10-12 18:35:00
3:15 PM,73.4,64.4,73,30.10,10.0,South,15.0,20.7,N/A,,Overcast,170,2012-10-12 20:15:00
3:55 PM,73.4,62.6,69,30.06,10.0,SE,12.7,-,N/A,,Scattered Clouds,140,2012-10-12 20:55:00
4:15 PM,73.4,62.6,69,30.07,10.0,SSE,15.0,-,N/A,,Mostly Cloudy,150,2012-10-12 21:15:00
4:35 PM,73.4,62.6,69,30.07,10.0,SSE,12.7,-,N/A,,Scattered Clouds,160,2012-10-12 21:35:00
4:55 PM,73.4,64.4,73,30.07,10.0,SSE,12.7,-,N/A,,Mostly Cloudy,150,2012-10-12 21:55:00
5:15 PM,73.4,64.4,73,30.06,10.0,SSE,10.4,-,N/A,,Overcast,150,2012-10-12 22:15:00
5:35 PM,73.4,64.4,73,30.05,10.0,SSE,12.7,-,N/A,,Mostly Cloudy,150,2012-10-12 22:35:00
6:15 PM,73.4,66.2,78,30.01,10.0,SE,12.7,18.4,N/A,,Overcast,140,2012-10-12 23:15:00
6:35 PM,73.4,66.2,78,30.00,10.0,SE,17.3,24.2,N/A,Rain-Thunderstorm,Thunderstorms and Rain,130,2012-10-12 23:35:00
6:55 PM,69.8,64.4,83,30.02,5.0,SE,11.5,16.1,N/A,Rain-Thunderstorm,Heavy Thunderstorms and Rain,140,2012-10-12 23:55:00
7:15 PM,69.8,66.2,88,30.04,2.0,SSE,13.8,-,0.01,Rain-Thunderstorm,Light Thunderstorms and Rain,160,2012-10-13 00:15:00
7:35 PM,62.6,60.8,94,30.03,7.0,SSE,12.7,29.9,0.01,Rain-Thunderstorm,Light Thunderstorms and Rain,150,2012-10-13 00:35:00
8:15 PM,68.0,62.6,83,30.04,10.0,SE,6.9,-,N/A,,Scattered Clouds,130,2012-10-13 01:15:00